Terug naar catalogus

COSMOS 1275 DEB

ActiefPO
NORAD 12757·DEBRIS·🇷🇺 Russia

Gelanceerd Jun 4, 1981 vanaf Plesetsk Cosmodrome

Loading…

Volgende Passages (komende 24 uur)

TLE

VersSource: Space-Track

Epoch: Sep 14, 2026, 22:31 UTC

1 12757U 81053DA  26257.93878190  .00000408  00000-0  35168-3 0  9994
2 12757  82.9505 147.5860 0057926 134.3502 236.6827 13.83444272265826

Volg COSMOS 1275 DEB in realtime met AllMySat

Download on the App Store